Flag for Germany Weather past 2 weeks in Bad Oldesloe, Schleswig-Holstein, Germany

Now
59 °F

Scattered clouds.


Feels Like: 57 °F
Forecast: 50 / 56 °F
Wind: 10 mph from Northwest

Location: Luebeck-Blankensee

Current Time: Oct 20, 2014 at 4:02:33 PM

Latest Report: Oct 20, 2014 at 3:20 PM


Visibility: N/A

Pressure: 29.86 "Hg

Humidity: 68%

Dew point: 48 °F

Location of Bad OldesloeLocation

Historic Weather in Bad Oldesloe — Graph

°F

Bad Oldesloe temperature yesterday

Maximum temperature yesterday: 73 °F (at 2:50 PM)
Minimum temperature yesterday: 57 °F (at 6:50 AM)
Average temperature yesterday: 65 °F

Past Weeks' High & Low Weather Summary

 TemperatureHumidityPressure
High73 °F (Oct 19, 2:50 PM)100% (Oct 7, 2:50 PM)30.15 "Hg (Oct 7, 2:50 PM)
Low45 °F (Oct 11, 6:50 AM)56% (Oct 10, 4:20 PM)29.53 "Hg (Oct 7, 4:50 PM)
Average58 °F84%29.83 "Hg
* Reported Oct 5 2:20 PM — Oct 20 2:50 PM, Bad Oldesloe, Weather by CustomWeather, © 2014

Note: Actual official high and low records may vary slightly from our data, if they occured in-between our weather recording intervals... More about our weather records

Advertising

Bad Oldesloe weather history for previous 24 hours

 ConditionsComfort  
Time TempWeatherWind HumidityBarometerVisibility
2:50 PM
Oct 20
63 °FScattered clouds.16 mph59%29.83 "HgN/A
2:20 PM61 °FScattered clouds.15 mph68%29.83 "HgN/A
1:50 PM61 °FScattered clouds.13 mph68%29.83 "HgN/A
1:20 PM61 °FScattered clouds.8 mph68%29.83 "HgN/A
12:50 PM63 °FScattered clouds.9 mph68%29.83 "HgN/A
12:20 PM59 °FScattered clouds.9 mph77%29.83 "HgN/A
11:50 AM61 °FScattered clouds.9 mph72%29.83 "HgN/A
11:20 AM59 °FScattered clouds.8 mph82%29.83 "HgN/A
10:50 AM57 °FScattered clouds.13 mph88%29.83 "HgN/A
10:20 AM57 °FScattered showers. Partly sunny.9 mph88%29.83 "HgN/A
9:50 AM55 °FScattered showers. Partly sunny.9 mph94%29.80 "HgN/A
9:20 AM55 °FScattered showers. Scattered clouds.10 mph94%29.80 "HgN/A
8:50 AM55 °FSprinkles. Passing clouds.7 mph94%29.80 "HgN/A
8:20 AM59 °FSprinkles. Partly cloudy.20 mph82%29.77 "HgN/A
7:50 AM57 °FSprinkles. Partly cloudy.18 mph88%29.77 "HgN/A
7:20 AM57 °FPassing clouds.18 mph88%29.77 "HgN/A
6:50 AM57 °FPassing clouds.16 mph88%29.77 "HgN/A
9:50 PM
Oct 19
61 °FPassing clouds.9 mph83%29.80 "HgN/A
9:20 PM63 °FPassing clouds.8 mph83%29.80 "HgN/A
8:50 PM63 °FPartly cloudy.9 mph83%29.80 "HgN/A
8:20 PM63 °FPassing clouds.10 mph83%29.80 "HgN/A
7:50 PM63 °FClear.12 mph83%29.80 "Hg10 mi
7:20 PM63 °FClear.13 mph88%29.80 "Hg10 mi
6:50 PM63 °FBroken clouds.12 mph88%29.80 "HgN/A
6:20 PM63 °FLight rain. Broken clouds.15 mph88%29.80 "HgN/A
5:50 PM64 °FLight rain. Broken clouds.14 mph94%29.80 "Hg3 mi
5:20 PM70 °FBroken clouds.16 mph69%29.77 "HgN/A
4:50 PM70 °FScattered clouds.15 mph69%29.80 "HgN/A
4:20 PM72 °FScattered clouds.16 mph65%29.80 "HgN/A
Weather by CustomWeather, © 2014

See weather overviewHow to use our weather pages